Weather reports worldwide

Advertisment
Volkel, Netherlands (6375): temperature & dewpoint: 12.01.2020 12:00:00 - 18.01.2020 12:00:00 (CET)Volkel, Netherlands (6375): temperature 5cm: 12.01.2020 12:00:00 - 18.01.2020 12:00:00 (CET)Volkel, Netherlands (6375): wind speed & gusts: 12.01.2020 12:00:00 - 18.01.2020 12:00:00 (CET)Volkel, Netherlands (6375): wind direction: 12.01.2020 12:00:00 - 18.01.2020 12:00:00 (CET)Volkel, Netherlands (6375): reduced air pressure: 12.01.2020 12:00:00 - 18.01.2020 12:00:00 (CET)Volkel, Netherlands (6375): visibility: 12.01.2020 12:00:00 - 18.01.2020 12:00:00 (CET)Volkel, Netherlands (6375): precipitation: 12.01.2020 12:00:00 - 18.01.2020 12:00:00 (CET)
Date & Time tt [°C] td [°C] tt 5cm [°C] ff [km/h] ff [kn] fx [km/h] fx [kn] dd ppp [hPa] vv [km] rr [mm]
18.01.2020 12:00:00 5,0 4,0 5,9 16 9 - - SW 1024,6 10 -
18.01.2020 11:00:00 4,0 2,8 3,9 21 11 32 18 SW 1024,3 10 0,0
18.01.2020 10:00:00 4,3 2,8 4,0 24 13 32 18 SW 1023,5 10 0,0
18.01.2020 09:00:00 3,4 2,1 2,7 22 12 29 16 SW 1022,5 10 0,0
18.01.2020 08:00:00 3,8 2,2 2,7 15 8 25 14 SSW 1022,2 10 0,0
18.01.2020 07:00:00 3,6 2,2 2,8 16 9 25 14 SW 1021,7 10 0,0
18.01.2020 06:00:00 3,2 1,9 2,1 15 8 25 14 SSW 1021,5 10 0,0
18.01.2020 05:00:00 3,7 2,0 2,8 21 11 29 16 SW 1021,2 10 0,0
18.01.2020 04:00:00 3,5 1,9 2,5 18 10 25 14 SSW 1021,1 10 0,0
18.01.2020 03:00:00 3,8 2,3 2,4 16 9 25 14 SSW 1021,1 10 0,0
18.01.2020 02:00:00 3,8 2,2 2,6 16 9 22 12 SSW 1020,5 10 0,0
18.01.2020 01:00:00 4,3 2,1 2,9 15 8 22 12 SSW 1020,1 10 0,0
18.01.2020 00:00:00 2,5 0,7 0,1 11 6 18 10 SSW 1019,6 10 0,0
17.01.2020 23:00:00 4,4 1,5 3,5 15 8 36 19 WSW 1019,2 10 0,0
17.01.2020 22:00:00 6,7 2,0 5,8 24 13 36 19 WSW 1018,3 10 0,0
17.01.2020 21:00:00 7,4 3,7 6,8 18 10 43 23 WSW 1017,5 10 0,0
17.01.2020 20:00:00 8,2 3,4 7,4 24 13 47 25 WSW 1016,7 10 0,0
17.01.2020 19:00:00 8,9 4,1 8,0 28 15 47 25 WSW 1015,8 10 0,0
17.01.2020 18:00:00 8,9 5,3 7,9 21 11 36 19 SSW 1014,8 10 0,0
17.01.2020 17:00:00 8,6 6,8 7,7 18 10 25 14 SW 1014,1 10 0,0
17.01.2020 16:00:00 9,5 7,9 9,1 18 10 29 16 SSW 1013,7 10 0,0
17.01.2020 15:00:00 9,5 7,9 9,2 21 11 29 16 SSW 1013,4 10 0,0
17.01.2020 14:00:00 9,1 8,0 8,9 18 10 29 16 SSW 1013,4 10 0,0
17.01.2020 13:00:00 8,8 7,6 8,6 26 14 43 23 SSW 1013,8 5 0,0
17.01.2020 12:00:00 10,1 6,3 9,8 22 12 36 19 SSW 1013,9 10 0,0
17.01.2020 11:00:00 10,2 5,6 9,7 16 9 29 16 S 1014,1 10 -
17.01.2020 10:00:00 9,5 5,3 9,0 16 9 25 14 S 1014,2 10 0,0
17.01.2020 09:00:00 9,3 4,9 8,7 18 10 32 18 S 1014,3 10 0,0
17.01.2020 08:00:00 8,9 4,6 7,7 18 10 29 16 SSE 1014,2 10 0,0
17.01.2020 07:00:00 8,6 4,4 7,1 16 9 25 14 SSE 1014,2 10 0,0
17.01.2020 06:00:00 8,7 4,4 7,0 13 7 29 16 SSE 1014,6 10 0,0
17.01.2020 05:00:00 9,2 4,5 8,3 16 9 25 14 SSE 1014,9 10 0,0
17.01.2020 04:00:00 8,4 4,3 7,1 15 8 25 14 SSE 1015,8 10 0,0
17.01.2020 03:00:00 8,4 4,5 7,0 13 7 25 14 SSE 1016,7 10 0,0
17.01.2020 02:00:00 8,2 4,7 6,9 15 8 25 14 SSE 1017,2 10 0,0
17.01.2020 01:00:00 8,5 5,0 7,1 16 9 29 16 SSE 1017,7 10 0,0
17.01.2020 00:00:00 8,4 5,0 7,1 16 9 25 14 SSE 1018,2 10 0,0
16.01.2020 23:00:00 8,1 5,1 7,0 15 8 25 14 SSE 1018,6 10 0,0
16.01.2020 22:00:00 8,3 5,3 7,1 18 10 32 18 SSE 1019,2 10 0,0
16.01.2020 21:00:00 8,6 5,4 7,6 18 10 29 16 SSE 1019,7 10 0,0
16.01.2020 20:00:00 8,8 5,3 7,6 18 10 32 18 SSE 1020,5 10 0,0
16.01.2020 19:00:00 8,9 5,0 7,3 15 8 25 14 SSE 1021,3 10 0,0
16.01.2020 18:00:00 8,7 5,2 6,8 11 6 18 10 SSE 1021,6 10 0,0
16.01.2020 17:00:00 9,8 5,6 8,0 11 6 22 12 SSE 1021,6 10 0,0
16.01.2020 16:00:00 10,9 6,3 10,1 15 8 29 16 S 1022,1 10 0,0
16.01.2020 15:00:00 11,3 6,4 11,2 16 9 29 16 S 1022,3 10 0,0
16.01.2020 14:00:00 10,9 6,9 11,0 18 10 32 18 S 1023,2 10 0,0
16.01.2020 13:00:00 10,0 6,3 10,4 18 10 32 18 S 1024,0 10 0,0
16.01.2020 12:00:00 8,6 6,1 9,1 13 7 22 12 SSE 1025,0 10 0,0
16.01.2020 11:00:00 6,2 4,6 6,3 13 7 18 10 SE 1025,3 10 0,0
16.01.2020 10:00:00 4,6 3,8 3,5 9 5 18 10 SSE 1025,6 10 0,0
16.01.2020 09:00:00 2,4 2,3 0,3 8 4 14 8 S 1025,9 10 0,0
16.01.2020 08:00:00 3,1 2,9 0,3 8 4 11 6 S 1025,8 8 0,0
16.01.2020 07:00:00 3,4 3,0 2,1 11 6 18 10 SSW 1025,4 9 0,0
16.01.2020 06:00:00 3,0 2,7 1,4 11 6 18 10 SSW 1025,3 9 0,0
16.01.2020 05:00:00 4,0 3,4 2,8 13 7 18 10 S 1024,9 10 0,0
16.01.2020 04:00:00 4,2 3,5 2,8 11 6 18 10 SSW 1024,3 10 0,0
16.01.2020 03:00:00 3,8 3,2 2,1 9 5 18 10 SSW 1023,8 10 0,0
16.01.2020 02:00:00 5,1 4,0 3,8 15 8 22 12 SSW 1023,1 10 0,0
16.01.2020 01:00:00 4,6 3,8 3,6 16 9 22 12 SW 1022,7 10 0,0
16.01.2020 00:00:00 5,4 4,3 4,1 16 9 22 12 SW 1021,9 10 0,0
15.01.2020 23:00:00 5,7 4,6 4,4 16 9 22 12 SW 1020,5 10 0,0
15.01.2020 22:00:00 5,6 4,9 4,6 16 9 22 12 SW 1019,5 10 0,0
15.01.2020 21:00:00 5,6 4,9 4,8 16 9 22 12 SW 1018,3 10 0,0
15.01.2020 20:00:00 6,4 5,5 5,8 15 8 22 12 SW 1017,2 10 0,0
15.01.2020 19:00:00 8,1 6,7 7,6 11 6 32 18 WSW 1015,8 10 0,0
15.01.2020 18:00:00 9,0 7,4 8,8 28 15 40 21 SW 1014,0 10 0,8
15.01.2020 17:00:00 9,9 7,7 9,2 24 13 36 19 SSW 1012,1 10 0,5
15.01.2020 16:00:00 10,3 7,1 9,5 29 16 43 23 SSW 1011,0 10 0,5
15.01.2020 15:00:00 11,8 5,5 10,9 29 16 54 29 SSW 1010,1 10 0,0
15.01.2020 14:00:00 12,2 5,0 11,6 34 18 54 29 SSW 1009,5 10 0,0
15.01.2020 13:00:00 12,7 4,8 12,7 29 16 50 27 S 1008,8 10 0,0
15.01.2020 12:00:00 11,5 4,6 11,1 28 15 47 25 S 1008,9 10 0,0
15.01.2020 11:00:00 11,2 4,5 10,9 29 16 50 27 SSW 1009,0 10 0,0
15.01.2020 10:00:00 11,0 4,4 10,5 29 16 47 25 SSW 1008,8 10 0,0
15.01.2020 09:00:00 10,4 4,4 9,2 29 16 47 25 S 1008,5 10 0,0
15.01.2020 08:00:00 10,8 4,7 9,5 31 17 47 25 S 1008,0 10 0,0
15.01.2020 07:00:00 11,2 5,1 10,2 29 16 61 33 S 1008,0 10 0,0
15.01.2020 06:00:00 11,2 5,6 10,0 34 18 50 27 SSW 1007,6 10 0,0
15.01.2020 05:00:00 11,2 6,1 10,0 34 18 54 29 SSW 1007,6 10 0,0
15.01.2020 04:00:00 11,1 6,8 10,0 29 16 43 23 SSW 1007,4 10 0,0
15.01.2020 03:00:00 11,2 7,0 10,3 31 17 50 27 SSW 1007,6 10 0,0
15.01.2020 02:00:00 11,5 7,1 10,7 34 18 50 27 SSW 1007,3 10 0,0
15.01.2020 01:00:00 11,8 7,0 10,7 34 18 54 29 SSW 1006,9 10 0,0
15.01.2020 00:00:00 11,9 7,0 11,1 41 22 61 33 SSW 1006,8 10 0,0
14.01.2020 23:00:00 11,6 7,2 10,7 37 20 54 29 SSW 1006,3 10 0,0
14.01.2020 22:00:00 10,8 7,9 10,1 37 20 61 33 SSW 1005,8 10 0,1
14.01.2020 21:00:00 11,6 8,0 11,1 42 23 65 35 SSW 1005,5 10 0,0
14.01.2020 20:00:00 11,8 8,2 11,2 35 19 54 29 SSW 1005,1 10 0,0
14.01.2020 19:00:00 11,4 7,8 10,9 41 22 61 33 SSW 1005,0 10 0,0
14.01.2020 18:00:00 11,2 7,1 10,6 44 24 61 33 SSW 1004,9 10 0,0
14.01.2020 17:00:00 11,0 6,7 10,3 35 19 58 31 SSW 1004,5 10 0,0
14.01.2020 16:00:00 11,0 6,8 10,4 31 17 50 27 SSW 1004,8 10 0,0
14.01.2020 15:00:00 10,9 7,3 10,4 29 16 43 23 SSW 1004,5 10 0,0
14.01.2020 14:00:00 10,3 7,2 9,9 28 15 47 25 SSW 1004,9 10 0,0
14.01.2020 13:00:00 9,9 7,1 9,5 28 15 40 21 SSW 1005,5 10 0,0
14.01.2020 12:00:00 9,4 7,5 8,9 24 13 40 21 SSW 1005,8 10 0,0
14.01.2020 11:00:00 9,4 7,3 8,9 28 15 40 21 SSW 1005,9 10 0,0
14.01.2020 10:00:00 9,2 7,4 8,8 29 16 47 25 SSW 1005,3 8 0,0
14.01.2020 09:00:00 10,1 7,2 9,5 34 18 47 25 SSW 1004,3 10 0,0
14.01.2020 08:00:00 9,9 7,3 9,2 34 18 54 29 SSW 1003,6 10 0,0
14.01.2020 07:00:00 9,6 7,6 9,0 35 19 58 31 SSW 1003,2 10 0,2
14.01.2020 06:00:00 9,7 7,5 9,0 37 20 58 31 SSW 1003,2 10 0,5
14.01.2020 05:00:00 10,0 7,6 9,4 35 19 54 29 SSW 1003,0 10 0,3
14.01.2020 04:00:00 10,4 7,6 9,6 31 17 50 27 S 1003,3 10 0,1
14.01.2020 03:00:00 10,5 7,4 9,8 34 18 54 29 S 1003,7 10 0,0
14.01.2020 02:00:00 10,9 7,1 10,0 34 18 50 27 S 1004,5 10 0,0
14.01.2020 01:00:00 10,7 7,0 10,1 28 15 50 27 S 1005,4 10 0,0
14.01.2020 00:00:00 10,4 7,1 9,9 29 16 50 27 S 1006,2 10 0,0
13.01.2020 23:00:00 10,3 6,8 9,6 29 16 47 25 S 1006,7 10 0,0
13.01.2020 22:00:00 9,7 6,5 9,1 28 15 43 23 S 1007,9 10 0,0
13.01.2020 21:00:00 9,2 6,2 8,5 24 13 40 21 S 1009,1 10 0,0
13.01.2020 20:00:00 8,7 5,6 8,2 24 13 36 19 S 1009,9 10 0,0
13.01.2020 19:00:00 8,2 5,1 7,5 24 13 36 19 S 1010,6 10 0,0
13.01.2020 18:00:00 7,9 4,6 7,4 21 11 29 16 S 1011,7 10 0,0
13.01.2020 17:00:00 7,6 3,8 6,4 15 8 32 18 S 1012,6 10 0,0
13.01.2020 16:00:00 8,3 3,4 7,1 18 10 32 18 S 1013,7 10 0,0
13.01.2020 15:00:00 8,8 3,8 8,2 24 13 36 19 SSW 1014,6 10 0,0
13.01.2020 14:00:00 8,3 5,7 8,0 16 9 32 18 S 1015,4 10 0,0
13.01.2020 13:00:00 8,4 5,6 8,6 21 11 32 18 S 1016,6 10 0,0
13.01.2020 12:00:00 7,9 5,3 8,2 21 11 29 16 SSW 1018,3 10 0,0
13.01.2020 11:00:00 7,3 5,2 7,2 18 10 32 18 SSW 1019,1 10 0,0
13.01.2020 10:00:00 6,8 5,0 6,3 16 9 25 14 SSW 1019,2 10 0,0
13.01.2020 09:00:00 6,5 5,2 6,1 13 7 22 12 S 1019,6 10 0,0
13.01.2020 08:00:00 6,9 5,6 6,5 16 9 29 16 SSW 1019,5 10 0,0
13.01.2020 07:00:00 6,8 5,5 6,1 18 10 25 14 SSW 1019,7 10 0,0
13.01.2020 06:00:00 7,1 5,7 6,6 16 9 29 16 SSW 1020,0 10 0,0
13.01.2020 05:00:00 7,1 5,7 6,7 21 11 29 16 SW 1020,4 10 0,0
13.01.2020 04:00:00 7,4 6,1 7,1 21 11 32 18 SW 1021,1 10 0,0
13.01.2020 03:00:00 7,7 6,3 7,2 15 8 25 14 SW 1021,5 10 0,0
13.01.2020 02:00:00 7,5 6,3 7,0 16 9 22 12 SW 1021,7 10 0,0
13.01.2020 01:00:00 7,0 6,2 6,4 13 7 22 12 SW 1022,0 10 0,0
13.01.2020 00:00:00 7,2 6,0 6,5 16 9 25 14 SW 1021,8 10 0,0
12.01.2020 23:00:00 7,9 6,7 7,3 16 9 22 12 SW 1021,8 10 0,0
12.01.2020 22:00:00 7,8 6,9 7,4 18 10 25 14 SW 1021,6 10 0,0
12.01.2020 21:00:00 8,2 7,0 7,7 16 9 32 18 SW 1021,2 10 0,0
12.01.2020 20:00:00 8,1 6,2 7,6 18 10 47 25 WSW 1020,7 8 1,6
12.01.2020 19:00:00 8,5 7,0 8,1 26 14 36 19 SW 1020,2 10 0,0
12.01.2020 18:00:00 8,8 7,0 8,4 26 14 40 21 SW 1019,8 10 0,0
12.01.2020 17:00:00 8,9 6,8 8,2 26 14 40 21 SW 1019,2 10 0,0
12.01.2020 16:00:00 8,6 6,7 8,2 26 14 40 21 SW 1018,8 10 0,0
12.01.2020 15:00:00 7,9 6,6 7,6 28 15 43 23 SW 1018,6 10 0,0
12.01.2020 14:00:00 7,2 6,4 6,9 28 15 40 21 SSW 1018,9 6 0,2
12.01.2020 13:00:00 6,4 5,5 6,2 28 15 43 23 SSW 1019,3 10 0,4
12.01.2020 12:00:00 6,4 4,6 6,1 28 15 47 25 SSW 1019,7 10 0,1

tt = temperature
td = dewpoint
tt 5cm = temperature 5cm
ff = wind speed
fx = gusts
dd = wind direction
ppp = reduced air pressure
vv = visibility
rr = precipitation

Next stations